Location: Muenchen
(48.1800°N, 11.5800°E)
Time: 01:46:33
(UTC+02:00)

Iridium 36 - Visible Passes

Search period start: 30 March 2015 00:00
Search period end: 09 April 2015 00:00
Orbit: 772 x 775 km, 86.4° (Epoch: 29 March)

Date Brightness Start Highest point End Pass type
(mag) Time Alt. Az. Time Alt. Az. Time Alt. Az.
30 Mar 7.7 21:11:05 10° NNW 21:15:27 27° W 21:19:43 10° SW visible
31 Mar 6.7 20:36:01 10° NNW 20:41:01 47° W 20:45:56 10° SSW visible
01 Apr 8.7 21:44:16 10° NW 21:46:20 12° WNW 21:48:07 10° W visible
02 Apr 8.2 21:08:08 10° NNW 21:12:02 21° W 21:15:47 10° SW visible
03 Apr 7.3 20:32:52 10° NNW 20:37:38 36° W 20:42:19 10° SSW visible
05 Apr 8.6 21:05:20 10° NW 21:08:35 16° WNW 21:11:39 10° WSW visible
06 Apr 7.9 20:29:48 10° NNW 20:34:14 28° W 20:38:33 10° SW visible
08 Apr 8.9 21:02:50 10° NW 21:05:07 13° WNW 21:07:08 10° W visible
